Theta_e
339 344 348 347 346 344 342 342 343 345 344 344 342 342 341 340 339 339 339 339 339 340 340 342 342 341 339 337 336 336 336 336 336 335 334 333 334 333 332 331 331 326 329
342 345 346 348 346 344 342 343 343 346 345 344 342 341 339 338 337 337 337 337 338 337 339 340 341 340 338 335 334 333 333 334 334 336 335 333 332 331 331 330 331 327 329
342 344 345 347 348 345 343 342 341 344 345 344 343 341 339 338 336 335 334 335 337 337 338 338 340 338 337 334 332 331 331 330 330 330 332 323 323 329 329 329 329 328 332
343 344 344 345 347 344 342 342 342 344 343 342 340 339 337 336 334 333 335 335 336 337 337 337 338 340 336 334 331 330 330 331 331 331 325 323 324 328 328 326 327 327 326
341 342 342 344 346 343 341 341 340 344 342 340 340 338 336 335 334 332 332 334 335 332 335 335 335 339 336 333 331 329 329 330 327 321 319 320 321 326 328 326 327 326 327
340 341 341 344 344 342 341 340 340 341 339 339 341 339 336 335 334 333 332 330 330 331 332 333 333 335 336 334 330 328 328 328 324 314 319 324 321 327 326 325 324 324 327
338 342 342 343 344 342 341 340 340 339 339 338 342 340 337 336 335 335 332 331 330 329 327 331 331 331 333 334 332 329 328 328 318 314 317 319 320 326 326 325 323 322 323
338 339 339 337 339 341 341 341 340 340 339 341 342 341 339 338 337 335 333 332 330 329 329 330 330 329 330 331 333 331 330 327 321 316 315 316 324 327 326 325 324 324 323
337 337 337 337 336 334 336 337 338 339 340 339 340 338 340 340 339 338 337 336 331 331 331 331 329 329 329 329 329 332 329 327 319 318 317 316 327 328 327 325 324 324 324
335 336 335 335 335 334 333 331 332 335 336 336 335 333 332 335 335 334 333 335 335 334 333 333 331 329 328 328 330 328 326 326 320 318 316 316 327 329 329 327 326 325 324
332 333 334 333 333 333 332 330 328 330 331 331 330 327 327 331 332 330 329 332 336 336 336 336 335 333 330 328 327 326 324 318 317 318 317 322 327 330 330 328 327 326 325
327 329 331 332 331 332 334 331 328 329 328 328 327 325 326 327 329 330 325 327 331 331 335 336 335 332 327 322 319 322 319 317 316 316 317 324 328 331 331 330 329 328 327
328 328 331 330 331 330 331 329 327 327 326 325 325 324 324 324 323 326 325 324 322 321 324 329 329 327 324 322 320 318 317 316 315 315 317 324 328 331 332 331 331 330 329
326 329 330 331 330 330 329 327 328 326 325 324 325 325 323 322 320 319 323 323 321 321 320 320 319 321 323 322 322 320 318 316 315 315 315 319 326 330 331 331 332 332 331
324 328 330 330 330 331 330 328 327 327 326 325 325 325 325 322 321 320 319 320 319 320 319 318 318 319 320 321 322 321 320 318 316 316 315 316 321 327 330 332 332 332 332
324 325 329 330 332 331 330 330 330 328 328 326 326 326 326 325 324 322 320 320 319 320 320 319 319 318 320 321 321 322 321 319 318 317 317 316 320 324 328 331 332 332 333
319 322 324 329 331 330 330 328 330 331 329 328 327 327 327 327 325 324 322 320 320 320 319 319 318 318 317 318 318 319 319 318 318 317 317 316 317 319 324 328 330 331 332
314 315 316 316 323 329 328 328 328 328 330 330 327 328 327 327 327 324 323 322 322 321 319 317 317 316 315 315 315 315 316 317 317 317 317 317 317 318 320 324 328 329 331
307 307 308 309 309 310 313 323 328 329 329 329 329 328 328 329 330 329 328 327 326 325 324 323 321 320 317 316 316 316 316 316 317 318 317 319 320 320 321 320 321 323 327
306 306 307 309 310 311 311 310 316 325 328 327 327 327 329 330 332 330 329 328 327 326 325 324 323 322 321 320 320 320 320 320 320 319 320 321 320 320 319 318 318 316 319
304 305 307 308 309 311 309 307 309 315 321 325 326 327 329 332 331 331 330 329 327 326 326 325 324 322 322 322 319 320 321 322 321 322 322 322 321 320 321 319 316 316 317
302 303 305 305 305 307 308 309 310 313 318 322 327 327 328 329 330 330 329 329 328 327 327 325 324 322 322 323 319 317 312 316 319 321 322 320 319 321 320 321 318 320 318
299 300 302 301 302 303 305 309 315 313 317 320 323 321 316 318 318 321 324 327 328 327 326 326 324 323 321 321 322 318 311 308 311 315 315 319 320 319 318 317 317 318 318
298 299 300 299 299 300 302 305 309 312 313 318 313 310 307 307 308 311 313 314 314 317 317 320 323 323 321 318 318 320 321 318 310 309 315 314 314 315 315 313 314 316 316
296 295 295 296 295 295 296 299 304 306 308 312 306 303 302 301 302 304 306 306 307 308 311 313 311 312 314 317 315 315 315 315 314 311 306 310 312 313 313 314 314 313 305
293 293 292 292 292 292 292 293 295 297 299 301 302 300 299 298 298 299 301 301 301 303 305 306 306 305 305 305 307 305 302 303 301 303 305 306 303 308 306 312 301 298 296
Wind_Speed
4 6 11 12 11 11 11 10 7 12 12 13 12 13 13 12 11 11 12 13 14 15 13 13 14 15 15 14 14 13 13 12 11 11 11 10 11 9 11 9 9 6 8
10 7 12 12 12 10 10 10 7 12 14 14 12 12 13 12 11 11 10 11 12 12 12 11 10 12 12 12 12 11 10 9 8 8 9 10 9 9 9 8 8 7 7
11 8 9 11 11 12 9 8 6 8 12 13 12 11 12 12 11 10 10 10 10 11 10 10 8 9 10 10 9 9 9 9 6 1 7 3 4 7 7 5 6 7 8
10 7 6 10 8 11 8 7 6 10 11 10 9 9 10 10 10 8 9 10 10 10 9 8 8 10 9 9 7 7 9 9 10 8 4 2 3 6 5 4 5 5 6
9 7 6 9 10 10 9 7 5 10 9 8 9 8 8 9 10 8 7 7 8 7 8 6 8 8 9 7 6 5 7 9 10 4 4 4 3 4 6 2 5 4 4
9 8 9 10 10 10 9 8 7 7 7 5 9 8 8 8 9 8 7 4 4 5 6 6 6 6 4 7 4 2 4 7 7 4 2 6 4 4 3 3 3 2 4
8 9 9 11 10 11 10 10 9 8 7 5 10 9 8 8 8 9 8 8 5 3 3 5 3 3 3 5 3 1 3 4 4 3 3 4 4 5 6 5 3 3 3
9 8 7 8 9 10 10 10 10 9 9 6 9 9 9 10 10 9 9 8 7 6 5 4 4 3 3 2 3 2 3 5 3 3 2 3 7 7 6 6 6 6 6
8 8 7 7 8 10 10 10 10 10 11 10 10 8 10 10 11 10 9 9 9 9 8 7 6 5 5 4 4 4 5 6 3 2 3 4 9 8 8 7 8 8 8
6 7 7 6 6 6 6 10 10 10 11 11 10 9 8 10 11 11 10 9 11 10 10 10 9 7 7 7 7 7 7 7 5 4 3 4 11 10 9 9 9 10 10
3 5 6 6 6 6 6 6 9 9 9 9 8 8 7 4 6 7 7 9 11 11 10 11 10 9 8 8 8 8 8 3 5 4 3 7 13 14 11 10 11 11 12
7 6 6 6 6 6 5 6 6 6 5 5 5 5 4 5 5 6 8 11 12 11 11 12 12 11 8 4 3 7 3 5 4 4 3 9 12 17 14 12 12 13 13
8 4 7 7 7 7 6 4 3 3 3 4 6 6 5 4 4 4 3 3 4 7 4 6 5 4 6 4 4 4 5 5 3 3 5 9 12 17 15 14 14 15 17
8 10 8 8 7 7 4 4 5 5 4 4 6 7 5 4 5 4 3 4 4 4 5 5 3 5 6 6 6 6 6 4 3 3 5 10 12 17 17 17 16 16 18
8 9 9 7 8 8 6 4 5 6 5 6 6 6 6 6 6 4 5 4 4 4 4 4 4 4 5 6 6 6 6 6 6 4 3 10 11 14 18 19 19 19 19
9 9 10 10 11 8 9 8 7 6 7 6 5 7 9 7 6 6 5 5 5 4 4 4 5 5 6 5 6 6 7 6 6 6 4 5 11 13 16 20 21 22 22
8 8 10 12 7 7 8 6 6 6 6 7 7 8 9 9 8 7 6 5 5 4 6 4 4 4 4 4 6 5 5 6 5 6 6 5 6 10 15 20 22 23 23
4 5 2 3 7 8 7 5 4 5 5 7 5 6 9 8 8 7 6 5 5 4 4 4 4 4 4 4 4 5 4 5 6 6 5 6 5 6 10 18 20 22 23
5 5 4 5 4 2 2 5 6 8 7 7 5 5 6 8 10 8 7 7 8 6 5 5 5 6 5 5 5 5 5 6 7 7 7 9 9 8 8 11 14 15 18
6 5 4 3 4 4 3 3 3 4 6 4 5 5 7 6 9 8 6 4 5 5 5 5 7 4 5 4 4 6 6 6 6 6 8 7 8 9 5 6 5 4 13
5 5 5 5 5 4 3 2 2 3 3 4 5 7 8 9 8 7 4 5 4 6 8 6 5 6 5 4 2 5 7 8 10 9 8 7 4 4 4 5 4 4 4
5 5 5 5 4 3 1 2 3 3 4 3 5 6 7 6 5 5 5 4 5 5 7 7 7 4 4 4 4 2 2 3 6 8 3 1 5 4 4 4 5 5 5
5 4 4 4 5 3 5 3 3 3 2 1 2 4 7 8 8 7 5 1 3 4 5 7 7 9 6 3 7 4 3 4 2 3 1 2 5 3 4 3 4 5 5
4 4 4 3 4 4 6 3 3 3 2 3 4 5 6 8 8 7 6 6 5 4 4 3 3 3 4 4 2 4 6 2 2 2 1 3 3 4 4 3 4 5 5
5 4 3 4 6 6 6 5 3 4 4 4 5 7 7 7 8 7 7 7 6 4 4 5 6 6 4 3 2 1 1 1 2 1 2 1 3 4 3 4 6 11 14
4 4 3 5 5 6 6 7 6 6 4 5 5 4 4 4 4 7 7 6 6 4 5 5 7 8 6 6 3 5 3 1 2 2 1 1 1 2 4 6 9 9 9
Wind_Direction
156 159 142 136 129 123 120 118 114 145 136 124 117 114 108 101 92 85 82 77 68 68 68 64 77 82 82 81 78 75 74 76 79 84 81 77 76 97 88 82 67 74 87
144 156 141 138 135 125 122 116 103 143 140 129 125 122 119 116 113 105 97 96 91 87 76 68 82 89 88 85 82 80 81 81 77 76 72 83 78 79 84 88 91 84 75
141 147 142 149 151 129 132 130 134 131 141 133 132 133 130 126 122 117 116 115 112 106 90 77 75 109 106 98 87 73 70 71 49 259 92 100 93 80 88 92 86 85 77
139 140 136 153 142 130 136 141 134 150 137 136 140 140 134 128 116 123 120 121 129 112 99 80 55 144 121 111 94 67 56 39 35 79 123 73 68 95 78 100 76 76 82
140 141 147 154 137 134 141 149 138 151 143 148 152 142 145 140 130 136 124 111 131 123 113 91 68 133 131 121 104 66 50 39 34 76 133 121 90 91 81 68 40 11 115
146 149 151 148 142 142 150 158 155 148 145 168 172 151 157 157 149 150 139 122 121 97 126 101 86 78 140 118 122 74 37 41 39 45 135 144 140 132 137 114 103 80 45
152 147 152 158 155 158 162 167 170 168 167 197 181 160 171 171 168 166 156 158 143 129 143 104 119 116 96 157 175 163 345 28 47 35 197 173 183 147 155 157 188 180 190
150 152 153 166 167 169 173 176 175 177 172 170 168 177 185 185 181 184 183 183 184 177 181 173 179 180 175 182 217 207 303 328 11 8 225 234 212 179 180 188 198 215 218
153 155 166 174 179 182 184 187 187 187 178 172 165 172 195 194 190 186 192 194 196 198 195 198 202 208 218 218 229 244 265 288 301 277 279 223 234 199 200 206 219 226 232
173 171 175 184 185 189 191 198 196 198 194 190 186 187 194 200 201 194 193 206 209 211 212 208 208 215 226 234 234 241 253 267 273 267 253 238 239 221 214 212 219 227 231
206 209 180 189 198 198 201 208 206 207 205 207 203 199 199 199 202 200 200 204 213 214 213 211 208 213 222 235 246 254 257 252 256 257 231 243 237 239 234 232 227 228 232
206 216 201 199 201 199 212 203 205 211 205 206 210 214 214 210 206 201 206 211 215 220 216 216 215 212 215 220 242 260 251 250 253 260 258 254 243 236 242 242 244 238 243
209 216 209 204 207 200 208 194 193 200 200 205 209 207 212 217 229 225 222 227 226 226 221 220 220 212 212 213 233 235 242 244 241 253 264 265 248 240 254 255 254 251 248
207 221 220 212 208 212 202 198 200 197 202 214 215 204 195 209 218 225 220 221 214 220 215 217 215 225 228 225 228 241 236 237 232 240 246 255 249 247 257 261 263 262 261
218 221 222 212 218 222 211 201 198 206 202 213 209 211 197 205 214 206 217 214 213 209 208 219 222 225 232 232 238 235 241 238 237 233 234 241 239 251 257 264 268 269 268
218 214 214 214 217 208 213 213 211 202 209 207 215 215 209 210 213 214 213 210 217 208 209 214 216 220 231 220 236 236 240 239 235 235 236 247 244 245 251 258 266 270 271
212 215 209 216 224 220 220 220 218 216 205 212 213 211 213 208 209 208 213 214 216 210 217 219 237 233 239 237 238 245 246 247 249 249 242 241 246 242 244 255 260 264 267
206 217 247 212 203 207 215 224 228 230 220 219 210 211 212 214 206 204 213 217 212 212 206 207 213 231 230 232 245 242 241 242 246 244 240 242 241 244 245 245 250 255 263
107 101 78 55 63 35 270 237 226 231 224 225 210 208 218 215 216 215 221 224 206 209 214 224 228 222 226 226 238 245 242 248 246 247 233 240 243 244 247 251 248 249 255
86 81 74 55 18 345 296 256 257 240 236 220 216 210 210 218 210 198 221 226 204 205 211 209 222 210 226 214 227 254 245 242 247 242 246 246 243 245 279 271 264 255 246
77 72 47 39 9 22 8 334 310 240 219 221 216 219 220 227 195 189 210 202 200 218 227 221 219 227 241 206 218 247 251 246 247 246 240 248 267 271 272 251 257 261 261
113 70 52 35 5 359 347 278 257 255 259 229 210 210 230 232 214 198 217 218 194 221 230 218 202 214 231 184 216 246 271 288 247 247 253 257 261 247 271 264 261 265 265
85 82 76 31 11 358 336 303 288 247 258 317 73 77 38 56 49 54 45 319 254 223 242 240 228 219 229 222 216 229 260 231 343 20 321 232 270 286 292 318 292 265 263
135 102 87 56 30 11 348 342 292 268 145 58 74 94 78 61 62 60 68 59 55 42 37 21 304 230 218 235 248 239 252 304 311 337 144 280 295 305 319 318 291 302 328
128 113 105 80 46 22 13 10 26 51 79 99 91 84 70 59 53 44 58 60 53 54 36 58 53 49 37 47 355 21 219 48 336 121 244 287 349 304 335 326 17 39 28
121 112 108 83 53 35 30 22 48 70 76 91 94 89 81 70 46 47 59 56 54 37 58 56 61 46 58 66 60 75 53 46 52 330 302 22 23 322 326 47 51 39 22